Location: Eastchurch
(51.4000°N, 0.8667°E)
Time: 21:00:28
(UTC+00:00)

Cosmos 2333 Rocket - Pass Details

Date: 19 January 2026
Orbit: 839 x 863 km, 70.8° (Epoch: 15 February)

Event Time Altitude Azimuth Distance (km) Brightness Sun altitude
Rises 17:57:37 0° 325° (NW) 3,449 5.7 -14.2°
Reaches altitude 10° 18:01:19 10° 349° (N) 2,506 4.6 -14.8°
Maximum altitude 18:04:31 15° 23° (NNE) 2,167 4.0 -15.2°
Enters shadow 18:05:39 14° 36° (NE) 2,210 3.9 -15.4°
